SAUDISAT 5A

Last updated on Fri Jul 10 2026 00:02:50 GMT+0000 (Coordinated Universal Time)

1 43831U 18102A 26190.29718905 .00003773 00000+0 13941-3 0 9990 2 43831 97.3057 251.4534 0010869 62.2028 298.0312 15.28281537419056
UTC large
Height (km)
Speed (km/s)
/
Latitude / Longitude
Inclination (degrees)
Orbital Period (minutes)
Azimuth
Elevation
Range (km)
Doppler Factor

Next 0 passes for location: London (51.5072 / 0.1276)

No passes found over London.
SAUDISAT 5A